Location: Observatory
(52.1446°N, 0.4624°W)
Time: 16:23:59
(UTC+01:00)

ISS - Pass Details

Date: 24 May 2020
Orbit: 417 x 420 km, 51.6° (Epoch: 26 May)

Event Time Altitude Azimuth Distance (km) Brightness Sun altitude
Rises 22:04:54 0° 273° (W) 2,366 0.8 -7.7°
Reaches altitude 10° 22:07:00 10° 272° (W) 1,502 -0.3 -7.9°
Maximum altitude 22:10:22 82° 187° (S) 429 -3.8 -8.2°
Drops below altitude 10° 22:13:45 10° 98° (E) 1,502 -1.4 -8.5°
Enters shadow 22:14:42 - 98° (E) 1,889 -0.9 -8.6°
